Regional Weather Roundup
Issued by NWS

Home | Current Version | Previous Version | Graphics & Text | Print | Product List | Glossary On
Versions: 1 2 3 4 5 6 7 8 9 10 11 12 13 14 15 16 17 18 19 20 21 22 23 24 25 26 27 28 29 30 31 32 33 34 35 36 37 38 39 40 41 42 43 44 45 46 47 48 49 50
830
ASUS45 KSLC 061310
RWRUT

UTAH REGIONAL WEATHER ROUNDUP
NATIONAL WEATHER SERVICE SALT LAKE CITY UT
600 AM MST SAT FEB 06 2016

UTZ001>011-023>025-061400-

NORTHERN UTAH

CITY           SKY/WX    TMP DP  RH WIND       PRES   REMARKS
BRIGHAM CITY   PTCLDY    19  16  89 CALM      30.54R
HILL AFB       CLEAR     23  11  61 SE13      30.50F WCI  11
LOGAN          FOG       11   8  88 CALM      30.52R VSB 1/2
OGDEN          CLEAR     22  16  78 S6        30.51F WCI  14
PROVO AIRPORT  PTCLDY   N/A N/A N/A CALM      30.53F
SALT LAKE CITY PTCLDY    23  18  81 SE14      30.51F WCI  11
VERNAL         CLOUDY     2  -3  80 W3        30.54R
WENDOVER       MOCLDY    18  16  93 NE6       30.51R WCI   9
HEBER CITY     PTCLDY     1  -2  85 CALM      30.51S FOG
WEST JORDAN    CLEAR     21  18  86 S8        30.53R WCI  12

$$

UTZ012>022-026-027-061400-

SOUTHERN/CENTRAL UTAH

CITY           SKY/WX    TMP DP  RH WIND       PRES   REMARKS
BLANDING       PTCLDY    13   6  73 N5        30.55F WCI   6
BRYCE CANYON   PTCLDY    -1  -5  82 VRB3      30.47R
CEDAR CITY     PTCLDY     3   0  87 NE6       30.48S WCI  -8
DELTA          CLOUDY     7   5  90 N5        30.54R VSB<1/4 WCI  -2
HANKSVILLE     CLOUDY    16  14  93 N3        30.64S
MILFORD        CLOUDY    -1  -4  87 SW13      30.51F FOG     WCI -19
MOAB/CYNLANDS  CLOUDY    16  15  96 CALM      30.59S
PRICE          PTCLDY     7   3  84 CALM      30.50R
ST GEORGE      MOSUNNY   32  21  64 CALM      30.55S
KANAB          CLEAR     28  19  69 NW12      30.53S WCI  18

$$

REGIONAL REPORTS     COLORADO/ARIZONA

CITY           SKY/WX    TMP DP  RH WIND       PRES   REMARKS
CRAIG, CO      CLOUDY   -13 -18  78 CALM      30.50R
GRAND JUNCTION CLOUDY     2   0  91 CALM      30.59S
RIFLE          CLOUDY     1  -4  79 SE5       30.57S WCI  -9
MONTROSE       CLOUDY     6   0  76 S9        30.57R WCI  -8
CORTEZ         CLOUDY     6   1  80 NE8       30.50R WCI  -7
PAGE, AZ       PTCLDY    25  19  78 CALM      30.53S
GRAND CANYON   PTCLDY     9   4  80 CALM      30.46S
KINGMAN        CLEAR     31  32 100 NE5       30.43R WCI  26
FLAGSTAFF      PTCLDY     8   4  83 CALM      30.46S

$$

REGIONAL REPORTS    NEVADA/IDAHO/WYOMING

CITY           SKY/WX    TMP DP  RH WIND       PRES   REMARKS
LAS VEGAS, NV  CLEAR     40  25  55 SW5       30.43F
ELY            PTCLDY     7   2  80 S17       30.47S WCI -12
ELKO           MOCLDY     8   5  87 E7        30.49F WCI  -3
POCATELLO, ID  CLOUDY    16  14  92 N9        30.47R WCI   4
BURLEY         PTCLDY    21  18  88 CALM      30.42R
EVANSTON, WY   CLOUDY    13   9  84 S12       30.42F WCI  -1
ROCK SPRINGS   CLOUDY    19  13  77 W29       30.38R WCI   0

$$




USA.gov is the U.S. government's official web portal to all federal, state and local government web resources and services.